Weather History for PAKV - October, 2012

Change the Weather History Date:

Monday, October 29, 2012

  Actual Average (PAGA) Record (PAGA)
Temperature  
Mean Temperature 19 °F -  
Max Temperature 27 °F 17 °F 39 °F (2002)
Min Temperature 12 °F 5 °F -17 °F (1975)
Degree Days  
Heating Degree Days 46    
Moisture  
Dew Point 10 °F    
Average Humidity 68    
Maximum Humidity 92    
Minimum Humidity 43    
Precipitation  
Precipitation 0.00 in - - ()
Sea Level Pressure  
Sea Level Pressure 30.20 in    
Wind  
Wind Speed 3 mph (NW)    
Max Wind Speed 15 mph    
Max Gust Speed 24 mph    
Visibility 10 miles    
Events      
Averages and records for this station are not official NWS values.
T = Trace of Precipitation, MM = Missing Value Source: NWS Daily Summary

Daily Weather History Graph

Daily Weather History Graph

Search for Another Location

Airport or City:

Trip Planner

Search our weather history database for the weather conditions in past years. The results will help you decide how hot, cold, wet, or windy it might be!

Date:

Astronomy

Oct. 29, 2012 Rise Set
Actual Time 10:11 AM AKDT 6:24 PM AKDT
Civil Twilight 9:19 AM AKDT 7:16 PM AKDT
Nautical Twilight 8:21 AM AKDT 8:13 PM AKDT
Astronomical Twilight 7:26 AM AKDT 9:09 PM AKDT
Moon 6:00 PM AKDT (10/29) 10:30 AM AKDT (10/29)
Length of Visible Light 9h 57m
Length of Day
8h 12m
Full, 100% of the Moon is Illuminated
Oct 29
Full
Nov 6
Last Quarter
Nov 13
New
Nov 20
First Quarter
Nov 28
Full

Hourly Weather History & Observations

Time (AKDT) Temp. Windchill Dew Point Humidity Pressure Visibility Wind Dir Wind Speed Gust Speed Precip Events Conditions
12:53 AM 12.9 °F - 10.9 °F 92% 30.18 in 10.0 mi Calm Calm - N/A   Clear
1:53 AM 15.1 °F - 12.9 °F 91% 30.18 in 10.0 mi Calm Calm - N/A   Clear
2:53 AM 14.0 °F - 12.0 °F 92% 30.17 in 10.0 mi Calm Calm - N/A   Clear
3:53 AM 15.1 °F - 12.9 °F 91% 30.17 in 10.0 mi Calm Calm - N/A   Mostly Cloudy
4:53 AM 18.0 °F 11.1 °F 16.0 °F 92% 30.15 in 10.0 mi SW 4.6 mph - N/A   Overcast
5:53 AM 19.9 °F - 17.1 °F 89% 30.14 in 10.0 mi Calm Calm - N/A   Overcast
6:53 AM 19.9 °F 14.9 °F 18.0 °F 92% 30.14 in 10.0 mi SSW 3.5 mph - N/A   Overcast
7:53 AM 18.0 °F - 16.0 °F 92% 30.15 in 10.0 mi Calm Calm - N/A   Overcast
8:53 AM 18.0 °F - 15.1 °F 88% 30.18 in 10.0 mi Calm Calm - N/A   Mostly Cloudy
9:53 AM 21.0 °F - 12.9 °F 71% 30.19 in 10.0 mi Calm Calm - N/A   Partly Cloudy
10:53 AM 16.0 °F 10.4 °F 10.9 °F 81% 30.20 in 10.0 mi Variable 3.5 mph - N/A   Partly Cloudy
11:53 AM 25.0 °F 14.8 °F 12.0 °F 58% 30.20 in 10.0 mi NNW 10.4 mph 17.3 mph N/A   Mostly Cloudy
12:53 PM 26.1 °F 18.4 °F 12.0 °F 55% 30.21 in 10.0 mi Variable 6.9 mph - N/A   Mostly Cloudy
1:53 PM 26.1 °F 17.6 °F 10.9 °F 53% 30.21 in 10.0 mi NNW 8.1 mph 20.7 mph N/A   Overcast
2:53 PM 25.0 °F 16.3 °F 8.1 °F 49% 30.21 in 10.0 mi NW 8.1 mph 19.6 mph N/A   Mostly Cloudy
3:53 PM 25.0 °F 18.1 °F 6.1 °F 45% 30.22 in 10.0 mi Variable 5.8 mph 18.4 mph N/A   Mostly Cloudy
4:53 PM 25.0 °F 19.3 °F 5.0 °F 43% 30.21 in 10.0 mi Variable 4.6 mph - N/A   Mostly Cloudy
5:53 PM 23.0 °F 14.7 °F 5.0 °F 46% 30.22 in 10.0 mi NW 6.9 mph 16.1 mph N/A   Scattered Clouds
6:53 PM 21.9 °F 11.7 °F 6.1 °F 51% 30.21 in 10.0 mi WNW 9.2 mph - N/A   Mostly Cloudy
7:53 PM 21.9 °F 13.4 °F 7.0 °F 53% 30.20 in 10.0 mi Variable 6.9 mph 19.6 mph N/A   Overcast
8:53 PM 21.0 °F 7.6 °F 7.0 °F 55% 30.22 in 10.0 mi NNW 15.0 mph 24.2 mph N/A   Partly Cloudy
9:53 PM 19.9 °F 10.1 °F 5.0 °F 52% 30.23 in 10.0 mi North 8.1 mph - N/A   Clear
10:53 PM 19.0 °F - 5.0 °F 54% 30.26 in 10.0 mi Calm Calm - N/A   Clear
11:53 PM 19.0 °F 11.1 °F 5.0 °F 54% 30.28 in 10.0 mi Variable 5.8 mph - N/A   Clear